This is the latest recevied weather packets stored in our database for station/object IU2EVW-13. If no packets are shown the sender has not sent any weather packets the latest 10 day(s).
| Time | Temp. | Humidity | Pressure | Rain* | Wind** | Luminosity | Snow |
|---|---|---|---|---|---|---|---|
| 1787707593 | 17.78° C | 79% | 1019.5 hPa | - | - | - | - |
| 1787706392 | 17.78° C | 80% | 1019.3 hPa | - | - | - | - |
| 1787705190 | 18.33° C | 79% | 1019.2 hPa | - | - | - | - |
| 1787703989 | 17.78° C | 79% | 1019.1 hPa | - | - | - | - |
| 1787702788 | 17.78° C | 80% | 1019 hPa | - | - | - | - |
| 1787701587 | 18.33° C | 79% | 1018.9 hPa | - | - | - | - |
| 1787700386 | 18.33° C | 77% | 1018.8 hPa | - | - | - | - |
| 1787699184 | 18.33° C | 79% | 1018.6 hPa | - | - | - | - |
| 1787697983 | 18.89° C | 78% | 1018.7 hPa | - | - | - | - |
| 1787696782 | 18.89° C | 78% | 1018.6 hPa | - | - | - | - |
| 1787695581 | 18.89° C | 77% | 1018.7 hPa | - | - | - | - |
| 1787694379 | 18.89° C | 76% | 1018.5 hPa | - | - | - | - |
| 1787693178 | 19.44° C | 75% | 1018.3 hPa | - | - | - | - |
| 1787691977 | 19.44° C | 77% | 1018.1 hPa | - | - | - | - |
| 1787690776 | 19.44° C | 75% | 1017.9 hPa | - | - | - | - |
| 1787689574 | 19.44° C | 73% | 1017.7 hPa | - | - | - | - |
| 1787688372 | 19.44° C | 74% | 1017.8 hPa | - | - | - | - |
| 1787687171 | 20° C | 74% | 1017.5 hPa | - | - | - | - |
| 1787685971 | 20° C | 73% | 1017.4 hPa | - | - | - | - |
| 1787684768 | 20.56° C | 72% | 1017 hPa | - | - | - | - |
| 1787683567 | 20.56° C | 72% | 1016.5 hPa | - | - | - | - |
| 1787682365 | 21.11° C | 70% | 1016.2 hPa | - | - | - | - |
| 1787681164 | 21.67° C | 67% | 1016 hPa | - | - | - | - |
| 1787679963 | 21.67° C | 68% | 1015.6 hPa | - | - | - | - |
| 1787678762 | 22.22° C | 64% | 1015.4 hPa | - | - | - | - |
* Rain since midnight (hover to see other rain measurements)
** Current wind speed in m/s (hover to see current wind gust speed)